STARLINK J (59930 NORAD) Tracking and Keplerian Element Data

This shows tracking and keplerian element data for the satellite.

Feedback or suggestion? Click here.




ElementValue
Catalog59930
NameSTARLINK J
Epoch Orbit228
Epoch Day160.16667824
Epoch Year2024
RAAN22.4586
Inclination43.0026
Eccentricity0.0002073
Argument of Perigee279.53
Mean Anonmoly152.2794
Mean Motion15.92538075
Decay Rate-0.00953355
L11 59930U 24106J 24160.16667824 -.00953355 27844-3 -26905-2 0 9996
L22 59930 43.0026 22.4586 0002073 279.5300 152.2794 15.92538075 2285



Live tracking and technical data element details for STARLINK J (NORAD 59930). STARLINK J can be tracked NOW for your location showing map with azimuth and elevation plus other details from your city location.







IsCatalogInMostPopularTable: catalog: 59930, numindb: 6
Update: records affected: 1



GetName: 59930 STARLINK J

Hit Count: updated at: Tue, 16 Jul 2024 03:35:48 GMT